Total_Precipitation_Accumulation
0.04 0.13 0.27 0.46 0.85 1.24 1.16 0.72 0.46 0.25 0.29 0.39 0.50 0.59 0.56 0.59 0.79 1.18 0.86 0.50 0.25 0.18 0.22 0.33 0.47 0.36 0.32 0.34 0.38 0.38 0.40 0.39 0.41 0.38 0.42 0.45 0.49 0.58 0.69 0.79 0.85 0.97 1.05 1.02 0.99 0.97 0.97 0.98 0.99
0.07 0.23 0.39 0.64 1.03 1.09 0.91 0.55 0.29 0.22 0.25 0.38 0.44 0.41 0.38 0.34 0.30 0.30 0.46 0.42 0.27 0.21 0.15 0.16 0.29 0.33 0.28 0.30 0.34 0.37 0.34 0.33 0.36 0.38 0.40 0.45 0.53 0.62 0.72 0.83 0.88 0.92 0.93 0.94 0.86 0.90 0.85 0.84 0.86
0.11 0.22 0.38 0.70 0.82 0.66 0.53 0.33 0.26 0.25 0.33 0.43 0.42 0.36 0.36 0.43 0.27 0.22 0.32 0.31 0.24 0.16 0.11 0.16 0.24 0.27 0.25 0.27 0.33 0.33 0.31 0.33 0.36 0.40 0.44 0.48 0.58 0.67 0.67 0.71 0.77 0.76 0.81 0.85 0.83 0.86 0.78 0.72 0.77
0.12 0.22 0.38 0.51 0.47 0.36 0.28 0.25 0.23 0.23 0.38 0.55 0.58 0.43 0.32 0.32 0.23 0.19 0.22 0.19 0.17 0.15 0.11 0.17 0.26 0.25 0.25 0.29 0.32 0.32 0.30 0.33 0.36 0.40 0.48 0.55 0.63 0.67 0.61 0.60 0.61 0.64 0.70 0.69 0.75 0.81 0.74 0.71 0.76
0.14 0.22 0.45 0.41 0.32 0.27 0.25 0.21 0.21 0.24 0.33 0.56 0.65 0.61 0.52 0.43 0.30 0.24 0.26 0.18 0.12 0.13 0.15 0.18 0.27 0.26 0.26 0.28 0.31 0.34 0.33 0.36 0.39 0.42 0.48 0.53 0.60 0.61 0.56 0.54 0.56 0.59 0.64 0.65 0.69 0.72 0.76 0.81 0.91
0.14 0.22 0.30 0.31 0.20 0.17 0.17 0.17 0.25 0.28 0.44 0.55 0.57 0.64 0.69 0.59 0.43 0.29 0.31 0.23 0.17 0.13 0.15 0.19 0.26 0.28 0.27 0.29 0.32 0.33 0.34 0.37 0.40 0.42 0.41 0.44 0.50 0.56 0.53 0.52 0.54 0.51 0.55 0.63 0.65 0.63 0.69 0.77 0.90
0.11 0.18 0.21 0.24 0.18 0.14 0.12 0.15 0.28 0.34 0.61 0.75 0.79 0.74 0.83 0.78 0.52 0.37 0.36 0.29 0.28 0.22 0.20 0.26 0.26 0.27 0.32 0.35 0.34 0.33 0.35 0.37 0.40 0.43 0.44 0.45 0.43 0.48 0.51 0.54 0.54 0.52 0.54 0.56 0.59 0.61 0.64 0.67 0.77
0.05 0.08 0.14 0.17 0.13 0.11 0.11 0.13 0.23 0.32 0.53 0.60 0.73 0.86 1.02 0.83 0.58 0.49 0.49 0.48 0.49 0.49 0.47 0.43 0.38 0.38 0.36 0.36 0.39 0.41 0.39 0.41 0.45 0.45 0.48 0.56 0.57 0.53 0.56 0.55 0.57 0.57 0.57 0.61 0.67 0.72 0.75 0.81 0.85
0.05 0.06 0.09 0.10 0.08 0.07 0.08 0.13 0.19 0.34 0.44 0.47 0.61 0.74 0.89 0.67 0.61 0.68 0.79 0.82 0.81 0.79 0.82 0.69 0.65 0.49 0.49 0.45 0.42 0.55 0.53 0.56 0.64 0.65 0.68 0.91 1.20 1.06 1.03 0.77 0.82 0.81 0.79 0.83 0.91 0.98 1.04 1.03 1.05
0.05 0.04 0.05 0.05 0.04 0.04 0.07 0.13 0.20 0.34 0.71 0.91 1.03 0.94 0.78 0.75 0.78 0.85 0.95 0.99 1.03 1.04 0.90 0.86 0.86 0.69 0.71 0.70 0.79 1.08 0.99 1.01 1.13 1.19 1.14 1.46 1.62 1.53 1.10 1.08 1.32 1.36 1.39 1.36 1.43 1.61 1.61 1.33 1.13
0.02 0.03 0.03 0.03 0.02 0.02 0.06 0.11 0.13 0.29 0.82 1.37 1.48 1.15 0.81 0.91 1.04 1.18 1.22 1.26 1.17 1.19 1.05 1.15 1.12 1.00 1.02 1.27 1.11 1.24 1.45 1.61 1.60 1.58 1.74 1.91 1.60 1.37 1.24 1.40 1.64 1.69 1.74 1.75 1.89 2.16 2.00 1.93 1.92
0.01 0.01 0.02 0.02 0.02 0.02 0.05 0.12 0.17 0.31 0.76 1.20 1.21 0.97 0.80 1.01 1.18 1.45 1.58 1.71 1.75 1.72 1.66 1.61 1.64 1.61 1.59 1.45 1.45 1.36 1.41 1.52 1.69 1.77 1.76 1.94 1.99 1.92 1.79 1.84 1.82 1.81 1.93 2.23 2.24 2.40 2.51 2.52 2.27
0.01 0.01 0.01 0.01 0.02 0.03 0.06 0.12 0.23 0.43 0.53 0.60 0.70 0.73 0.84 1.12 1.43 1.79 1.99 2.18 2.27 2.50 2.56 2.50 2.36 2.16 2.21 2.18 2.01 1.65 1.69 1.65 1.64 1.91 1.96 2.04 2.18 2.27 2.21 2.09 2.10 1.82 1.86 2.21 2.56 2.45 2.57 2.72 2.54
0.01 0.01 0.01 0.02 0.02 0.04 0.06 0.12 0.26 0.52 0.53 0.54 0.64 0.68 0.81 1.22 1.76 2.24 2.33 2.43 2.69 3.28 3.65 3.41 3.18 2.86 2.77 2.75 2.59 2.45 2.12 2.03 1.83 1.95 2.04 2.22 2.42 2.50 2.45 2.26 2.21 1.90 1.85 2.09 2.39 2.41 2.62 2.64 2.65
0.01 0.02 0.05 0.05 0.04 0.10 0.12 0.22 0.42 0.63 0.58 0.59 0.71 0.75 0.83 1.19 1.66 2.40 2.76 2.99 3.23 3.90 4.41 4.15 3.99 3.93 3.70 3.56 3.16 2.71 2.38 2.18 2.28 2.35 2.41 2.52 2.60 2.69 2.63 2.48 2.22 2.11 2.19 2.26 2.26 2.35 2.74 2.58 2.48
0.03 0.05 0.12 0.11 0.08 0.12 0.18 0.50 0.64 0.70 0.64 0.68 0.91 0.85 0.84 1.15 1.65 2.37 2.98 3.46 3.76 4.09 4.46 4.78 4.49 4.83 4.73 4.43 3.94 3.41 3.13 2.98 2.80 2.71 2.74 2.60 2.59 2.63 2.76 2.43 2.09 2.25 2.42 2.49 2.47 2.49 2.69 2.69 2.79
0.06 0.09 0.15 0.17 0.13 0.13 0.21 0.61 0.74 0.59 0.62 0.78 0.96 0.97 1.00 1.24 1.58 2.07 2.71 3.27 3.83 4.39 4.84 5.29 5.52 5.60 5.19 4.81 4.39 4.08 3.83 3.55 3.09 2.60 2.41 2.26 2.12 2.03 2.12 1.88 1.80 1.90 2.02 1.95 1.85 2.17 2.38 2.50 2.66
0.05 0.09 0.16 0.30 0.22 0.15 0.21 0.50 0.67 0.62 0.62 0.82 1.04 1.01 1.06 1.26 1.61 2.01 2.56 3.03 3.69 4.54 5.34 5.73 5.83 5.44 5.04 4.68 4.20 3.99 3.67 3.31 2.93 2.46 2.11 1.88 1.80 1.64 1.74 1.52 1.46 1.66 1.81 1.83 1.93 2.08 2.07 2.03 2.13
0.05 0.08 0.15 0.24 0.16 0.16 0.28 0.50 0.62 0.68 0.74 0.90 1.06 1.05 1.10 1.20 1.56 2.01 2.52 3.03 3.71 4.62 5.53 5.85 5.57 4.99 4.56 4.15 3.65 3.26 2.91 2.64 2.52 2.22 1.88 1.74 1.68 1.66 1.82 1.58 1.69 1.72 1.77 1.78 1.81 1.87 1.77 1.56 1.74
0.07 0.10 0.16 0.20 0.13 0.16 0.26 0.51 0.72 0.84 0.94 0.90 0.96 1.06 1.02 1.21 1.62 2.12 2.69 3.11 3.46 3.99 4.73 5.01 4.64 3.99 3.42 3.13 2.96 2.77 2.67 2.35 2.14 2.03 1.91 1.62 1.57 1.59 1.61 1.65 1.42 1.44 1.57 1.50 1.52 1.77 1.73 1.50 1.60
0.09 0.09 0.14 0.17 0.09 0.16 0.27 0.62 0.93 1.05 0.87 0.70 0.64 0.76 0.78 0.95 1.46 2.18 2.71 2.99 3.25 3.45 3.44 3.55 3.42 2.92 2.57 2.46 2.44 2.40 2.47 2.29 2.03 1.89 1.71 1.46 1.38 1.33 1.37 1.36 1.33 1.43 1.38 1.43 1.51 1.58 1.67 1.57 1.47
0.09 0.06 0.06 0.06 0.08 0.26 0.38 0.92 1.18 1.08 0.90 0.71 0.59 0.61 0.63 0.85 1.32 2.06 2.34 2.44 2.47 2.57 2.38 2.38 2.45 2.27 2.20 2.10 2.11 1.98 1.84 1.79 1.68 1.67 1.59 1.45 1.35 1.27 1.17 1.19 1.18 1.26 1.27 1.49 1.33 1.39 1.55 1.57 1.42
0.06 0.05 0.05 0.08 0.12 0.29 0.49 0.84 1.22 1.09 1.03 0.77 0.57 0.56 0.66 0.74 1.01 1.35 1.41 1.52 1.60 1.68 1.72 1.88 2.12 2.13 2.03 1.97 2.06 2.06 1.79 1.62 1.53 1.54 1.58 1.46 1.33 1.25 1.14 1.17 1.23 1.26 1.26 1.31 1.37 1.55 1.52 1.47 1.44
0.04 0.06 0.12 0.24 0.36 0.69 0.71 0.80 1.22 1.09 0.88 0.60 0.49 0.53 0.49 0.52 0.70 0.89 0.95 0.98 1.04 1.10 1.23 1.43 1.81 1.95 1.87 1.82 1.86 1.83 1.75 1.66 1.52 1.40 1.40 1.38 1.30 1.27 1.27 1.24 1.31 1.30 1.29 1.30 1.32 1.41 1.40 1.45 1.50
0.06 0.09 0.28 0.66 1.06 1.16 0.73 0.80 1.13 0.77 0.53 0.39 0.33 0.36 0.41 0.54 0.62 0.73 0.86 0.87 0.81 0.79 0.90 1.10 1.33 1.45 1.49 1.56 1.65 1.72 1.77 1.70 1.51 1.41 1.31 1.28 1.18 1.17 1.30 1.32 1.32 1.38 1.39 1.32 1.33 1.34 1.29 1.38 1.51
0.07 0.10 0.20 0.39 0.52 0.64 0.65 1.06 1.20 0.66 0.43 0.32 0.29 0.29 0.42 0.49 0.47 0.49 0.56 0.56 0.55 0.64 0.73 0.88 1.00 1.09 1.18 1.26 1.40 1.53 1.56 1.54 1.45 1.46 1.34 1.26 1.15 1.14 1.25 1.35 1.32 1.28 1.24 1.21 1.41 1.31 1.26 1.37 1.43
0.07 0.08 0.09 0.10 0.16 0.41 0.74 0.99 0.90 0.58 0.39 0.30 0.30 0.29 0.38 0.39 0.33 0.30 0.30 0.31 0.38 0.55 0.66 0.73 0.81 0.91 1.00 1.08 1.25 1.38 1.41 1.38 1.40 1.39 1.26 1.18 1.22 1.17 1.22 1.18 1.23 1.24 1.19 1.22 1.35 1.34 1.34 1.39 1.36
0.08 0.07 0.07 0.07 0.17 0.38 0.69 1.02 1.04 0.76 0.55 0.46 0.35 0.28 0.32 0.31 0.26 0.27 0.25 0.23 0.24 0.31 0.46 0.60 0.70 0.84 0.97 1.03 1.05 1.10 1.25 1.22 1.21 1.18 1.10 1.18 1.21 1.19 1.26 1.27 1.17 1.17 1.20 1.28 1.39 1.37 1.35 1.45 1.52
0.07 0.07 0.07 0.07 0.09 0.21 0.53 0.80 0.69 0.57 0.42 0.41 0.40 0.34 0.32 0.31 0.29 0.24 0.25 0.23 0.21 0.24 0.36 0.51 0.60 0.72 0.82 0.84 0.85 0.97 1.08 1.07 1.03 1.02 0.99 1.05 1.07 1.11 1.16 1.18 1.19 1.19 1.26 1.44 1.68 1.63 1.57 1.59 1.66
0.07 0.06 0.08 0.09 0.10 0.13 0.27 0.43 0.36 0.38 0.33 0.36 0.37 0.38 0.42 0.42 0.39 0.32 0.29 0.24 0.28 0.29 0.32 0.44 0.46 0.50 0.55 0.60 0.66 0.79 0.92 0.92 0.91 0.94 1.06 1.11 1.09 1.03 0.96 0.99 1.06 1.06 1.17 1.39 1.70 1.82 1.81 1.82 1.75